Regional Weather Roundup
Issued by NWS Charleston, SC

Current Version | Previous Version | Graphics & Text | Print | Product List | Glossary On
Versions: 1 2 3 4 5 6 7 8 9 10 11 12 13 14 15 16 17 18 19 20 21 22 23 24 25 26 27 28 29 30 31 32 33 34 35 36 37 38 39 40 41 42 43 44 45 46 47 48 49 50
000
ASUS42 KCHS 230725
RWRCHS

REGIONAL WEATHER ROUNDUP
NATIONAL WEATHER SERVICE CHARLESTON SC
300 AM EDT SAT AUG 23 2014

NOTE: "FAIR" INDICATES FEW OR NO CLOUDS BELOW 12,000 FEET WITH NO
SIGNIFICANT WEATHER AND/OR OBSTRUCTIONS TO VISIBILITY.

NOT ALL STATIONS ARE QUALITY CONTROLLED BY THE NATIONAL
WEATHER SERVICE. USE DATA WITH CAUTION...ESPECIALLY
DEWPOINT OBSERVATIONS.

SCZ027-030-031-034>040-042>050-230800-
...SOUTH CAROLINA...

CITY           SKY/WX    TMP DP  RH WIND       PRES   REMARKS
N CHARLESTON   CLEAR     84  78  82 SW6       29.92F HX  95
WATERFRONT PRK   N/A     84 N/A N/A SW5         N/A
FORT JOHNSON   NOT AVBL
MOUNT PLEASANT FAIR      82  79  89 SW5       29.91F HX  93
JOHNS ISLAND   SUNNY     82  79  89 CALM      29.92F HX  93
PINOPOLIS        N/A     84  79  84 SW7       29.83F HX  96
MONCKS CORNER    N/A     81  79  94 SW6       29.91F
SUMMERVILLE    FAIR      79  79 100 SW3       29.92F
BEAUFORT MCAS  CLEAR     81  75  82 CALM      29.93F
BEAUFORT ARPT  FAIR      81  77  89 SW3       29.92F
HILTON HEAD IS CLEAR     81  75  83 S3        29.94F
GEORGETOWN     NOT AVBL
WALTERBORO     SUNNY     79 N/A N/A CALM      29.93F
ORANGEBURG     CLEAR     76  72  87 SW3       29.93F
BARNWELL       FAIR      75  72  88 W3        29.94F
AIKEN          FAIR      77  72  83 CALM      29.98F
MANNING        FAIR      77 N/A N/A CALM      29.91F
KINGSTREE      NOT AVBL
COLUMBIA       CLEAR     77  71  82 CALM      29.91F
SUMTER         PTCLDY    78  75  88 CALM      29.91F
FLORENCE       MOCLDY    77  74  90 CALM      29.91F
MYRTLE BEACH   CLEAR     82  77  83 CALM      29.91F HX  91
N MYRTLE BEACH CLEAR     83  80  91 SW6       29.91F HX  95

$$

GAZ063-065-086>088-099>101-113>116-118-119-134-136>141-150-230800-
...GEORGIA...

CITY           SKY/WX    TMP DP  RH WIND       PRES   REMARKS
SAVANNAH ARPT  CLEAR     81  74  79 SW3       29.94F
HUNTER AAF     CLEAR     81  74  79 SW2       29.92F
FORT STEWART   CLEAR     81  73  78 SW3       29.93F HAZE
STATESBORO     NOT AVBL
SYLVANIA       SUNNY     75  75  98 CALM      29.94F
CLAXTON        FAIR     N/A N/A N/A CALM      29.94F
THOMSON        CLEAR     75  75 100 CALM      30.00F
AUGUSTA-BUSH   CLEAR     74  71  91 CALM      29.93F
AUGUSTA-DANIEL CLEAR     84  70  62 NW7       29.96F
SWAINSBORO     FAIR      79  75  89 CALM      29.97S
VIDALIA          N/A     79  73  83 CALM      29.96S
ALMA           CLEAR     77  74  90 CALM      29.96S
WAYCROSS       CLEAR     80  76  86 SW3       29.96S
JESUP            N/A     79  77  94 CALM      29.95F
BRUNSWICK      CLEAR     81  72  74 SW5       29.95F
SAINT SIMONS   CLEAR     82  74  76 W7        29.95F

$$

SCZ027-028-034-036>038-045-046-048>050-GAZ119-141-230800-
...LAKE AND SUPPLEMENTAL COASTAL OBSERVATIONS...

STATION/POSITION TIME  TEMP    WIND        PRES    WAVE   SWELL
                       AIR SEA DIR/SP/G            HT/PER HT/PER/DIR
                 (UTC) (F)     (DEG/KT/KT) (MB)    (FT/S) (FT/S/D)
UPR LAKE MARION  NOT AVBL
WINYAH BAY       0700   82     240/  4     1013.0S
LAKE MURRAY      0600   82      CALM  /  2 1013.2F
ACE BASIN NERRS  0700   80        CALM     1014.0S
FORT PULASKI     0700   82     220/  4/  5 1013.9F
SAPELO ISLAND    0700   81     220/  5     1014.0F

$$

ANZ835-935-AMZ111-154-330-350-352-354-374-450-454-472-230800-
...C-MAN AND BUOY OBSERVATIONS...

STATION/POSITION TIME  TEMP    WIND        PRES    WAVE   SWELL
                       AIR SEA DIR/SP/G            HT/PER HT/PER/DIR
                 (UTC) (F)     (DEG/KT/KT) (MB)    (FT/S) (FT/S/D)
FOLLY BEACH CMAN 0700   85     230/  9/ 12 1013.4F
BUOY 41004       0700   85 85  210/ 10/ 14 1012.8F
BUOY 41008       0700   86 85  230/ 12/ 14 1013.9F   2/ 3
5E ST. MARYS GA  0700      83                N/A     1/ 8
FRYING PAN BUOY  NOT AVBL
BUOY 41025       0700   78     340/  8/ 10 1013.1F   2/ 7   2/ 60/ 7
CAPE LOOKOUT NC  0700   80      40/  4/  5 1013.1R
BUOY 41002       0647   82 82  250/ 16/ 17 1014.1F   3/ 5   2/110/ 9
BUOY 41010       0700   84 86  190/  6/  8 1014.9F   2/ 7   2/140/ 7
BUOY 41012       NOT AVBL
ST AUGUSTINE FL  0700   78     260/  5/  6 1015.5F
CAPERS NEARSHORE NOT AVBL
FRIPP NEARSHORE  NOT AVBL


$$



USA.gov is the U.S. government's official web portal to all federal, state and local government web resources and services.